Regional Weather Roundup
Issued by NWS

Home | Current Version | Previous Version | Text Only | Print | Product List | Glossary Off
Versions: 1 2 3 4 5 6 7 8 9 10 11 12 13 14 15 16 17 18 19 20 21 22 23 24 25 26 27 28 29 30 31 32 33 34 35 36 37 38 39 40 41 42 43 44 45 46 47 48 49 50

000
ASUS43 KBIS 022220
RWRND

NORTH DAKOTA REGIONAL WEATHER ROUNDUP
NATIONAL WEATHER SERVICE BISMARCK ND
500 PM CDT TUE SEP 02 2014

NOTE: "FAIR" INDICATES FEW OR NO CLOUDS BELOW 12,000 FEET WITH NO
SIGNIFICANT WEATHER AND/OR OBSTRUCTIONS TO VISIBILITY.


NDZ001>003-009>011-017-022300-
NORTHWEST NORTH DAKOTA

CITY           SKY/WX    TMP DP  RH WIND       PRES   REMARKS
WILLISTON      SUNNY     76  41  28 W12       29.75F
MINOT          SUNNY     76  47  35 W15       29.72S
MINOT AFB      SUNNY     75  48  38 W15       29.72R
$$

NDZ018>021-031>035-040>046-022300-
SOUTHWEST NORTH DAKOTA

CITY           SKY/WX    TMP DP  RH WIND       PRES   REMARKS
BISMARCK       PTSUNNY   80  46  30 NW10G18   29.78F
DICKINSON      SUNNY     72  45  37 W9        29.79F
GARRISON         N/A     76  47  35 W15G23    29.75F
HETTINGER ARPT PTSUNNY   73  47  39 W12       29.83F
$$

NDZ004>008-012>016-024-026-027-054-022300-
NORTHEAST NORTH DAKOTA

CITY           SKY/WX    TMP DP  RH WIND       PRES   REMARKS
GRAND FORKS    MOSUNNY   79  53  40 SW16G23   29.68F
GRND FRKS AFB  SUNNY     78  56  46 SW15G23   29.69F
DEVILS LAKE    SUNNY     77  48  36 W18G28    29.69S
$$

NDZ022-023-025-028>030-036>039-047>053-022300-
SOUTHEAST NORTH DAKOTA

CITY           SKY/WX    TMP DP  RH WIND       PRES   REMARKS
FARGO          SUNNY     78  54  43 SW18G26   29.74F
JAMESTOWN      MOSUNNY   76  54  46 W9        29.75F
$$




USA.gov is the U.S. government's official web portal to all federal, state and local government web resources and services.